EW3182 Weather Reports


Display with metric or nautical units.
time (UTC)temp
F
wind
direction
speed
MPH
gust
MPH
rain 1hr
in
rain 24hr
in
rain mn
in
humidity
%
barometer
mb
20260831213017 99 113 0.0 6.0 0.00 0.00 0.00 32 1011.9
20260831211519 99 288 1.0 7.0 0.00 0.00 0.00 32 1012.0
20260831210014 99 105 0.0 6.0 0.00 0.00 0.00 32 1012.2
20260831204519 98 165 0.0 8.0 0.00 0.00 0.00 33 1012.5
20260831203020 97 150 0.0 4.0 0.00 0.00 0.00 34 1012.7
20260831201513 98 271 1.0 10.0 0.00 0.00 0.00 34 1012.9
20260831200012 99 245 1.0 7.0 0.00 0.00 0.00 32 1012.9
20260831194507 98 135 2.0 6.0 0.00 0.00 0.00 34 1013.0
20260831193007 98 160 1.0 6.0 0.00 0.00 0.00 34 1013.5
20260831191504 97 256 3.0 8.0 0.00 0.00 0.00 35 1013.6
20260831190003 98 114 1.0 7.0 0.00 0.00 0.00 35 1013.7
20260831184502 98 120 2.0 6.0 0.00 0.00 0.00 36 1013.8
20260831183002 98 91 2.0 10.0 0.00 0.00 0.00 35 1014.1
20260831181559 97 208 1.0 6.0 0.00 0.00 0.00 36 1014.3
20260831180057 97 233 0.0 6.0 0.00 0.00 0.00 39 1014.7
20260831174554 96 139 2.0 8.0 0.00 0.00 0.00 40 1014.8
20260831173055 96 240 0.0 4.0 0.00 0.00 0.00 40 1015.0
20260831171551 96 115 0.0 6.0 0.00 0.00 0.00 41 1015.1
20260831170053 95 9 1.0 4.0 0.00 0.00 0.00 43 1015.3
20260831164545 94 215 1.0 6.0 0.00 0.00 0.00 42 1015.4
20260831163048 94 179 1.0 4.0 0.00 0.00 0.00 42 1015.3
20260831161541 93 113 1.0 4.0 0.00 0.00 0.00 43 1015.4
20260831160045 92 259 0.0 5.0 0.00 0.00 0.00 45 1015.5
20260831154536 92 133 1.0 5.0 0.00 0.00 0.00 45 1015.4
20260831153031 91 188 0.0 2.0 0.00 0.00 0.00 49 1015.3
20260831151533 90 188 0.0 4.0 0.00 0.00 0.00 51 1015.3
20260831150025 89 240 0.0 4.0 0.00 0.00 0.00 53 1015.1
20260831144520 87 184 0.0 6.0 0.00 0.00 0.00 56 1015.1
20260831143018 86 248 0.0 3.0 0.00 0.00 0.00 62 1015.1
20260831141514 84 273 0.0 5.0 0.00 0.00 0.00 65 1015.1
20260831140013 83 259 0.0 3.0 0.00 0.00 0.00 67 1015.2
20260831134521 82 252 0.0 4.0 0.00 0.00 0.00 68 1015.1
20260831133009 82 169 0.0 2.0 0.00 0.00 0.00 70 1014.8
20260831131506 81 250 0.0 2.0 0.00 0.00 0.00 71 1014.5
20260831130004 79 198 0.0 1.0 0.00 0.00 0.00 74 1014.4
20260831124502 77 203 0.0 2.0 0.00 0.00 0.00 76 1014.1
20260831123059 0 0.0 0.0 0.00 0.00 0.00 1014.0
20260831121603 0 0.0 0.0 0.00 0.00 0.00 1013.8
20260831120050 0 0.0 0.0 0.00 0.00 0.00 1013.6
20260831114551 0 0.0 0.0 0.00 0.00 0.00 1013.4
20260831113042 0 0.0 0.0 0.00 0.00 0.00 1013.4
20260831111539 0 0.0 0.0 0.00 0.00 0.00 1013.2
20260831110035 0 0.0 0.0 0.00 0.00 0.00 1013.1
20260831104537 0 0.0 0.0 0.00 0.00 0.00 1013.0
20260831103024 0 0.0 0.0 0.00 0.00 0.00 1013.0
20260831101529 0 0.0 0.0 0.00 0.00 0.00 1013.0
20260831100015 0 0.0 0.0 0.00 0.00 0.00 1013.0
20260831094510 0 0.0 0.0 0.00 0.00 0.00 1012.8
20260831093007 0 0.0 0.0 0.00 0.00 0.00 1012.9
20260831091501 0 0.0 0.0 0.00 0.00 0.00 1012.7
20260831090100 0 0.0 0.0 0.00 0.00 0.00 1012.6
20260831084556 82 239 0.0 1.0 0.00 0.00 0.00 61 1012.5
20260831083057 83 238 0.0 1.0 0.00 0.00 0.00 60 1012.7
20260831081556 83 136 0.0 3.0 0.00 0.00 0.00 59 1012.7
20260831080053 84 292 0.0 4.0 0.00 0.00 0.00 57 1012.6
20260831074553 84 266 1.0 6.0 0.00 0.00 0.00 56 1012.5
20260831073052 84 197 0.0 5.0 0.00 0.00 0.00 55 1012.5
20260831071551 84 113 0.0 4.0 0.00 0.00 0.00 54 1012.4
20260831070050 84 266 0.0 5.0 0.00 0.00 0.00 53 1012.4
20260831064549 82 227 0.0 2.0 0.00 0.00 0.00 57 1012.6
20260831063044 81 197 0.0 0.0 0.00 0.00 0.00 60 1012.5
20260831061544 81 197 0.0 0.0 0.00 0.00 0.00 60 1012.5
20260831060043 82 197 0.0 0.0 0.00 0.00 0.00 60 1012.5
20260831054550 82 196 0.0 0.0 0.00 0.00 0.00 59 1012.6
20260831053041 81 197 0.0 0.0 0.00 0.00 0.00 61 1012.6
20260831051542 82 197 0.0 0.0 0.00 0.00 0.00 61 1012.3
20260831050033 83 197 0.0 0.0 0.00 0.00 0.00 58 1012.2
20260831044532 83 197 0.0 0.0 0.00 0.00 0.00 57 1012.2
20260831043032 84 197 0.0 0.0 0.00 0.00 0.00 55 1012.2
20260831041548 85 197 0.0 0.0 0.00 0.00 0.00 54 1012.1
20260831040039 86 197 0.0 0.0 0.00 0.00 0.00 53 1012.1
20260831034531 87 197 0.0 0.0 0.00 0.00 0.00 49 1012.1
20260831033030 88 131 0.0 0.0 0.00 0.00 0.00 48 1011.9
20260831031529 88 134 0.0 0.0 0.00 0.00 0.00 48 1011.8
20260831030029 88 207 0.0 1.0 0.00 0.00 0.00 47 1011.8
20260831024528 87 264 0.0 0.0 0.00 0.00 0.00 48 1011.5
20260831023028 88 264 0.0 0.0 0.00 0.00 0.00 46 1011.3
20260831021527 88 264 0.0 0.0 0.00 0.00 0.00 45 1011.2
20260831020026 89 264 0.0 0.0 0.00 0.00 0.00 43 1010.9
20260831014530 90 264 0.0 0.0 0.00 0.00 0.00 41 1010.7
20260831013026 91 264 0.0 0.0 0.00 0.00 0.00 38 1010.5
20260831011533 92 264 0.0 0.0 0.00 0.00 0.00 37 1010.4
20260831010024 93 285 0.0 1.0 0.00 0.00 0.00 36 1010.3
20260831004524 94 152 0.0 3.0 0.00 0.00 0.00 35 1010.3
20260831003024 95 176 0.0 3.0 0.00 0.00 0.00 35 1010.3
20260831001522 96 203 0.0 3.0 0.00 0.00 0.00 34 1010.4
20260831000021 96 269 1.0 4.0 0.00 0.00 0.00 34 1010.4
20260830234521 96 110 1.0 6.0 0.00 0.00 0.00 33 1010.5
20260830233021 97 108 0.0 5.0 0.00 0.00 0.00 32 1010.5
20260830231519 97 291 1.0 4.0 0.00 0.00 0.00 30 1010.4
20260830230017 97 121 1.0 6.0 0.00 0.00 0.00 31 1010.5
20260830224516 98 235 1.0 5.0 0.00 0.00 0.00 30 1010.6
20260830223016 98 288 0.0 4.0 0.00 0.00 0.00 30 1010.6
20260830221515 98 200 0.0 8.0 0.00 0.00 0.00 30 1010.7
20260830220019 98 96 0.0 6.0 0.00 0.00 0.00 30 1010.6
20260830214513 99 292 2.0 8.0 0.00 0.00 0.00 31 1010.7